BAW439M EHAM-EGLL

Flight info

Callsign BAW439M
Flight time 0h 48m
Altitude 24000
Route IDRID L980 LOGAN
Aircraft A319/M-SDE3FGHIRWY/LB1

Departure

Time 2026-05-06 18:32
Airport Amsterdam Airport Schiphol (EHAM)

Arrival

Time 2026-05-06 19:21
Airport London Heathrow Airport (EGLL)
Time Latitude Longitude Altitude Speed Heading
2026-05-06 17:58 52.30718 4.77090 4 ft 0 kts
2026-05-06 18:00 52.30717 4.77090 4 ft 0 kts
2026-05-06 18:17 52.30695 4.77087 4 ft 4 kts
2026-05-06 18:18 52.30669 4.77088 5 ft 4 kts 340°
2026-05-06 18:18 52.30653 4.77112 5 ft 4 kts 281°
2026-05-06 18:18 52.30650 4.77144 8 ft 1 kts 273°
2026-05-06 18:18 52.30650 4.77149 8 ft 1 kts 273°
2026-05-06 18:23 52.30651 4.77133 5 ft 4 kts 273°
2026-05-06 18:23 52.30646 4.77066 5 ft 8 kts 244°
2026-05-06 18:23 52.30593 4.77048 6 ft 9 kts 162°
2026-05-06 18:24 52.30539 4.77096 7 ft 8 kts 163°
2026-05-06 18:24 52.30495 4.77041 7 ft 10 kts 236°
2026-05-06 18:24 52.30455 4.76931 7 ft 12 kts 236°
2026-05-06 18:24 52.30410 4.76812 9 ft 12 kts 241°
2026-05-06 18:25 52.30362 4.76691 10 ft 13 kts 238°
2026-05-06 18:25 52.30312 4.76562 13 ft 13 kts 237°
2026-05-06 18:25 52.30264 4.76437 13 ft 14 kts 238°
2026-05-06 18:25 52.30208 4.76290 13 ft 16 kts 238°
2026-05-06 18:26 52.30146 4.76125 11 ft 19 kts 237°
2026-05-06 18:26 52.30074 4.75939 10 ft 15 kts 237°
2026-05-06 18:26 52.30015 4.75788 9 ft 17 kts 238°
2026-05-06 18:26 52.29953 4.75624 12 ft 16 kts 238°
2026-05-06 18:27 52.29890 4.75461 13 ft 17 kts 238°
2026-05-06 18:27 52.29837 4.75314 15 ft 15 kts 246°
2026-05-06 18:27 52.29865 4.75151 10 ft 19 kts 312°
2026-05-06 18:27 52.29962 4.74975 6 ft 22 kts 314°
2026-05-06 18:28 52.30028 4.74849 6 ft 10 kts 311°
2026-05-06 18:28 52.30077 4.74762 7 ft 11 kts 311°
2026-05-06 18:28 52.30124 4.74670 10 ft 10 kts 310°
2026-05-06 18:28 52.30180 4.74570 13 ft 9 kts 311°
2026-05-06 18:29 52.30224 4.74487 14 ft 10 kts 310°
2026-05-06 18:29 52.30292 4.74358 14 ft 15 kts 311°
2026-05-06 18:29 52.30342 4.74243 14 ft 12 kts 288°
2026-05-06 18:29 52.30339 4.74107 15 ft 12 kts 255°
2026-05-06 18:30 52.30286 4.73999 16 ft 13 kts 217°
2026-05-06 18:30 52.30241 4.73940 15 ft 0 kts 219°
2026-05-06 18:31 52.30239 4.73937 15 ft 2 kts 219°
2026-05-06 18:31 52.30197 4.73875 15 ft 12 kts 235°
2026-05-06 18:31 52.30207 4.73756 16 ft 12 kts 316°
2026-05-06 18:31 52.30275 4.73741 24 ft 3 kts
2026-05-06 18:32 52.30439 4.73757 15 ft 56 kts
2026-05-06 18:32 52.31033 4.73811 20 ft 112 kts
2026-05-06 18:32 52.31950 4.73902 156 ft 142 kts
2026-05-06 18:32 52.32932 4.73890 787 ft 143 kts 352°
2026-05-06 18:33 52.33913 4.73437 1342 ft 154 kts 346°
2026-05-06 18:33 52.34992 4.72796 1633 ft 176 kts 344°
2026-05-06 18:33 52.36215 4.72042 1899 ft 199 kts 344°
2026-05-06 18:33 52.37593 4.71191 2215 ft 224 kts 343°
2026-05-06 18:34 52.39132 4.70262 2689 ft 245 kts 344°
2026-05-06 18:34 52.40762 4.69276 3517 ft 252 kts 342°
2026-05-06 18:34 52.42407 4.68318 4402 ft 256 kts 343°
2026-05-06 18:34 52.44099 4.67334 5292 ft 261 kts 339°
2026-05-06 18:35 52.45614 4.65622 6162 ft 271 kts 314°
2026-05-06 18:35 52.46545 4.62910 6973 ft 280 kts 286°
2026-05-06 18:35 52.46587 4.59706 7816 ft 287 kts 256°
2026-05-06 18:35 52.45714 4.56785 8737 ft 288 kts 237°
2026-05-06 18:36 52.44570 4.54075 9629 ft 289 kts 236°
2026-05-06 18:36 52.43413 4.51358 10330 ft 297 kts 237°
2026-05-06 18:36 52.42187 4.48474 10542 ft 320 kts 236°
2026-05-06 18:36 52.40872 4.45371 10727 ft 341 kts 237°
2026-05-06 18:37 52.39503 4.42138 11254 ft 349 kts 237°
2026-05-06 18:37 52.38111 4.38854 11913 ft 352 kts 237°
2026-05-06 18:37 52.36708 4.35550 12630 ft 354 kts 237°
2026-05-06 18:37 52.35292 4.32227 13317 ft 357 kts 236°
2026-05-06 18:38 52.33864 4.28882 13983 ft 359 kts 238°
2026-05-06 18:38 52.32431 4.25523 14629 ft 361 kts 237°
2026-05-06 18:38 52.30992 4.22150 15214 ft 363 kts 237°
2026-05-06 18:38 52.29546 4.18759 15794 ft 366 kts 236°
2026-05-06 18:39 52.28088 4.15342 16379 ft 368 kts 236°
2026-05-06 18:39 52.26618 4.11907 17013 ft 369 kts 237°
2026-05-06 18:39 52.25144 4.08464 17610 ft 372 kts 237°
2026-05-06 18:40 52.22152 4.01488 18698 ft 378 kts 236°
2026-05-06 18:40 52.20639 3.97975 19198 ft 381 kts 236°
2026-05-06 18:40 52.19109 3.94431 19671 ft 385 kts 236°
2026-05-06 18:40 52.17560 3.90852 20287 ft 384 kts 236°
2026-05-06 18:41 52.16042 3.87344 20863 ft 385 kts 236°
2026-05-06 18:41 52.14496 3.83771 21354 ft 387 kts 236°
2026-05-06 18:41 52.12937 3.80167 21770 ft 391 kts 236°
2026-05-06 18:41 52.11369 3.76548 22257 ft 393 kts 236°
2026-05-06 18:42 52.09795 3.72917 22783 ft 393 kts 235°
2026-05-06 18:42 52.08208 3.69262 23194 ft 397 kts 235°
2026-05-06 18:42 52.06602 3.65580 23613 ft 400 kts 235°
2026-05-06 18:42 52.04991 3.61894 23878 ft 400 kts 235°
2026-05-06 18:43 52.03371 3.58189 23950 ft 407 kts 235°
2026-05-06 18:43 52.01708 3.54390 23958 ft 416 kts 235°
2026-05-06 18:43 52.00025 3.50557 23956 ft 417 kts 235°
2026-05-06 18:43 51.98335 3.46729 23952 ft 419 kts 234°
2026-05-06 18:44 51.96615 3.42893 23961 ft 421 kts 234°
2026-05-06 18:44 51.94882 3.39064 23955 ft 420 kts 234°
2026-05-06 18:44 51.93152 3.35265 23953 ft 420 kts 234°
2026-05-06 18:44 51.91412 3.31458 23951 ft 421 kts 234°
2026-05-06 18:45 51.89672 3.27648 23954 ft 420 kts 234°
2026-05-06 18:45 51.87945 3.23853 23955 ft 419 kts 234°
2026-05-06 18:45 51.86365 3.19893 23955 ft 420 kts 243°
2026-05-06 18:45 51.85220 3.15560 23951 ft 418 kts 252°
2026-05-06 18:46 51.84544 3.10993 23954 ft 418 kts 261°
2026-05-06 18:46 51.84224 3.06327 23949 ft 418 kts 263°
2026-05-06 18:46 51.83921 3.01649 23940 ft 419 kts 263°
2026-05-06 18:46 51.83620 2.97026 23942 ft 419 kts 263°
2026-05-06 18:47 51.83315 2.92341 23956 ft 419 kts 263°
2026-05-06 18:47 51.83007 2.87661 23962 ft 420 kts 264°
2026-05-06 18:47 51.82689 2.82947 23966 ft 424 kts 263°
2026-05-06 18:47 51.82367 2.78219 23966 ft 423 kts 263°
2026-05-06 18:48 51.82044 2.73495 23964 ft 421 kts 263°
2026-05-06 18:48 51.81723 2.68778 23970 ft 423 kts 263°
2026-05-06 18:48 51.81402 2.64050 23970 ft 424 kts 263°
2026-05-06 18:48 51.81079 2.59309 23968 ft 423 kts 263°
2026-05-06 18:49 51.80755 2.54586 23972 ft 422 kts 263°
2026-05-06 18:49 51.80428 2.49874 23978 ft 423 kts 263°
2026-05-06 18:49 51.80094 2.45143 23976 ft 424 kts 263°
2026-05-06 18:49 51.79757 2.40410 23980 ft 424 kts 263°
2026-05-06 18:50 51.79419 2.35682 23988 ft 423 kts 263°
2026-05-06 18:50 51.79085 2.31025 23991 ft 423 kts 263°
2026-05-06 18:50 51.78743 2.26302 23982 ft 423 kts 263°
2026-05-06 18:50 51.78397 2.21527 23968 ft 423 kts 263°
2026-05-06 18:51 51.78086 2.16856 23967 ft 424 kts 264°
2026-05-06 18:51 51.77808 2.12118 23972 ft 424 kts 264°
2026-05-06 18:51 51.77547 2.07363 23970 ft 424 kts 265°
2026-05-06 18:51 51.77275 2.02620 23973 ft 425 kts 264°
2026-05-06 18:52 51.77003 1.97865 23979 ft 425 kts 264°
2026-05-06 18:52 51.76731 1.93116 23988 ft 425 kts 264°
2026-05-06 18:52 51.76455 1.88371 23986 ft 425 kts 264°
2026-05-06 18:52 51.76168 1.83627 23983 ft 424 kts 264°
2026-05-06 18:53 51.75875 1.78886 23978 ft 424 kts 264°
2026-05-06 18:53 51.75576 1.74147 23979 ft 424 kts 264°
2026-05-06 18:53 51.75275 1.69411 23978 ft 424 kts 264°
2026-05-06 18:53 51.74972 1.64673 23977 ft 424 kts 264°
2026-05-06 18:54 51.74670 1.59938 23980 ft 425 kts 264°
2026-05-06 18:54 51.74372 1.55213 23983 ft 418 kts 264°
2026-05-06 18:54 51.74083 1.50633 23382 ft 405 kts 264°
2026-05-06 18:54 51.73796 1.46094 21907 ft 406 kts 264°
2026-05-06 18:55 51.73513 1.41677 21510 ft 385 kts 264°
2026-05-06 18:55 51.73241 1.37456 21250 ft 375 kts 264°
2026-05-06 18:55 51.72967 1.33292 20728 ft 372 kts 264°
2026-05-06 18:55 51.72692 1.29162 20214 ft 369 kts 264°
2026-05-06 18:56 51.72418 1.25058 19709 ft 367 kts 264°
2026-05-06 18:56 51.72146 1.20982 19222 ft 364 kts 264°
2026-05-06 18:56 51.71878 1.16942 18736 ft 361 kts 264°
2026-05-06 18:56 51.71615 1.12991 18265 ft 358 kts 264°
2026-05-06 18:57 51.71347 1.09021 17747 ft 355 kts 264°
2026-05-06 18:57 51.71078 1.05082 17269 ft 352 kts 264°
2026-05-06 18:57 51.70807 1.01168 16791 ft 350 kts 264°
2026-05-06 18:57 51.70538 0.97279 16279 ft 348 kts 264°
2026-05-06 18:58 51.70270 0.93409 15823 ft 347 kts 264°
2026-05-06 18:58 51.69994 0.89419 15578 ft 365 kts 264°
2026-05-06 18:58 51.69712 0.85320 15272 ft 369 kts 264°
2026-05-06 18:58 51.69428 0.81213 14967 ft 368 kts 264°
2026-05-06 18:59 51.69140 0.77114 14662 ft 367 kts 264°
2026-05-06 18:59 51.68849 0.73041 14357 ft 366 kts 264°
2026-05-06 18:59 51.68562 0.69016 14121 ft 355 kts 264°
2026-05-06 18:59 51.68286 0.65146 13997 ft 339 kts 265°
2026-05-06 19:00 51.68020 0.61443 13872 ft 326 kts 265°
2026-05-06 19:00 51.67761 0.57880 13745 ft 315 kts 265°
2026-05-06 19:00 51.67509 0.54439 13605 ft 304 kts 265°
2026-05-06 19:00 51.67346 0.52214 13437 ft 301 kts 265°
2026-05-06 19:01 51.67024 0.47803 13276 ft 295 kts 265°
2026-05-06 19:01 51.66787 0.44524 13107 ft 295 kts 265°
2026-05-06 19:01 51.66549 0.41253 12916 ft 293 kts 265°
2026-05-06 19:01 51.66312 0.37996 12710 ft 292 kts 265°
2026-05-06 19:02 51.66076 0.34720 12529 ft 304 kts 266°
2026-05-06 19:02 51.65868 0.31257 11987 ft 317 kts 266°
2026-05-06 19:02 51.65669 0.27643 10932 ft 328 kts 266°
2026-05-06 19:02 51.65472 0.23947 9967 ft 329 kts 266°
2026-05-06 19:03 51.65283 0.20354 9342 ft 317 kts 266°
2026-05-06 19:03 51.65101 0.16860 8677 ft 309 kts 266°
2026-05-06 19:03 51.64938 0.13453 8144 ft 298 kts 266°
2026-05-06 19:03 51.64791 0.10237 8011 ft 279 kts 266°
2026-05-06 19:04 51.64653 0.07149 8015 ft 270 kts 266°
2026-05-06 19:04 51.64527 0.04269 8016 ft 249 kts 266°
2026-05-06 19:04 51.64397 0.01356 8018 ft 271 kts 266°
2026-05-06 19:04 51.64265 -0.01663 8047 ft 272 kts 267°
2026-05-06 19:05 51.64105 -0.04685 8051 ft 273 kts 267°
2026-05-06 19:05 51.63955 -0.07449 8050 ft 274 kts 266°
2026-05-06 19:05 51.63783 -0.10515 8055 ft 275 kts 266°
2026-05-06 19:05 51.63596 -0.13581 8057 ft 275 kts 266°
2026-05-06 19:06 51.63404 -0.16646 8045 ft 275 kts 265°
2026-05-06 19:06 51.63222 -0.19721 7962 ft 277 kts 267°
2026-05-06 19:06 51.63036 -0.22780 7705 ft 274 kts 266°
2026-05-06 19:06 51.62861 -0.25827 7449 ft 273 kts 266°
2026-05-06 19:07 51.62689 -0.28863 7200 ft 271 kts 266°
2026-05-06 19:07 51.62567 -0.30852 7091 ft 269 kts 266°
2026-05-06 19:07 51.62331 -0.34883 6995 ft 271 kts 266°
2026-05-06 19:07 51.62141 -0.37906 7002 ft 272 kts 266°
2026-05-06 19:08 51.61956 -0.40914 7004 ft 272 kts 265°
2026-05-06 19:08 51.61780 -0.43947 7004 ft 272 kts 266°
2026-05-06 19:08 51.61599 -0.46976 7000 ft 272 kts 266°
2026-05-06 19:08 51.61484 -0.48982 7004 ft 272 kts 266°
2026-05-06 19:09 51.61311 -0.52018 7001 ft 272 kts 266°
2026-05-06 19:09 51.61130 -0.55048 6999 ft 272 kts 266°
2026-05-06 19:09 51.60952 -0.58073 7005 ft 272 kts 266°
2026-05-06 19:09 51.60765 -0.61100 7003 ft 271 kts 266°
2026-05-06 19:10 51.60569 -0.64120 7006 ft 272 kts 266°
2026-05-06 19:10 51.60389 -0.67147 7008 ft 272 kts 266°
2026-05-06 19:10 51.60206 -0.70164 7003 ft 267 kts 265°
2026-05-06 19:10 51.60037 -0.73083 6898 ft 258 kts 266°
2026-05-06 19:11 51.59874 -0.75913 6769 ft 250 kts 265°
2026-05-06 19:11 51.59705 -0.78658 6618 ft 243 kts 267°
2026-05-06 19:11 51.59542 -0.81281 6496 ft 235 kts 265°
2026-05-06 19:11 51.59383 -0.83897 6085 ft 239 kts 266°
2026-05-06 19:12 51.59218 -0.86560 5552 ft 239 kts 266°
2026-05-06 19:12 51.59060 -0.89214 5037 ft 238 kts 266°
2026-05-06 19:12 51.58923 -0.91549 4703 ft 233 kts 264°
2026-05-06 19:12 51.58414 -0.93935 4454 ft 225 kts 234°
2026-05-06 19:13 51.57216 -0.95407 4235 ft 218 kts 198°
2026-05-06 19:13 51.55743 -0.95778 4080 ft 210 kts 183°
2026-05-06 19:13 51.54329 -0.95851 4014 ft 200 kts 181°
2026-05-06 19:13 51.52947 -0.95753 4008 ft 198 kts 164°
2026-05-06 19:14 51.51762 -0.94679 4007 ft 197 kts 140°
2026-05-06 19:14 51.50719 -0.93249 3998 ft 197 kts 137°
2026-05-06 19:14 51.49709 -0.91777 3994 ft 195 kts 136°
2026-05-06 19:14 51.48708 -0.90303 4000 ft 195 kts 135°
2026-05-06 19:15 51.47885 -0.88593 3995 ft 193 kts 114°
2026-05-06 19:15 51.47539 -0.86541 3999 ft 191 kts 91°
2026-05-06 19:15 51.47544 -0.84418 3999 ft 190 kts 86°
2026-05-06 19:15 51.47560 -0.82316 3988 ft 182 kts 85°
2026-05-06 19:16 51.47573 -0.80371 3968 ft 171 kts 87°
2026-05-06 19:16 51.47587 -0.78477 3804 ft 169 kts 86°
2026-05-06 19:16 51.47599 -0.76610 3600 ft 167 kts 85°
2026-05-06 19:16 51.47611 -0.74754 3384 ft 166 kts 86°
2026-05-06 19:17 51.47623 -0.72907 3162 ft 165 kts 85°
2026-05-06 19:17 51.47634 -0.71069 2935 ft 164 kts 86°
2026-05-06 19:17 51.47645 -0.69241 2716 ft 164 kts 86°
2026-05-06 19:17 51.47655 -0.67416 2493 ft 163 kts 86°
2026-05-06 19:18 51.47666 -0.65597 2260 ft 163 kts 85°
2026-05-06 19:18 51.47676 -0.63783 2038 ft 162 kts 85°
2026-05-06 19:18 51.47685 -0.61979 1819 ft 163 kts 86°
2026-05-06 19:18 51.47694 -0.60201 1587 ft 154 kts 86°
2026-05-06 19:19 51.47702 -0.58548 1401 ft 145 kts 85°
2026-05-06 19:19 51.47709 -0.56962 1197 ft 142 kts 85°
2026-05-06 19:19 51.47718 -0.55392 997 ft 139 kts 86°
2026-05-06 19:19 51.47743 -0.53845 779 ft 138 kts 86°
2026-05-06 19:20 51.47749 -0.52327 632 ft 138 kts 88°
2026-05-06 19:20 51.47753 -0.50770 458 ft 137 kts 87°
2026-05-06 19:20 51.47748 -0.49270 240 ft 134 kts 85°
2026-05-06 19:20 51.47753 -0.47800 87 ft 128 kts 87°
2026-05-06 19:21 51.47758 -0.46628 89 ft 81 kts 90°
2026-05-06 19:21 51.47760 -0.45958 85 ft 48 kts 90°
2026-05-06 19:21 51.47760 -0.45576 85 ft 19 kts 92°
2026-05-06 19:21 51.47673 -0.45469 86 ft 17 kts 178°
2026-05-06 19:22 51.47599 -0.45521 87 ft 11 kts 260°
2026-05-06 19:22 51.47596 -0.45656 90 ft 13 kts 271°
2026-05-06 19:22 51.47596 -0.45818 86 ft 16 kts 270°
2026-05-06 19:22 51.47596 -0.46011 88 ft 19 kts 269°
2026-05-06 19:23 51.47594 -0.46231 90 ft 21 kts 270°
2026-05-06 19:23 51.47593 -0.46478 86 ft 19 kts 270°
2026-05-06 19:23 51.47592 -0.46685 86 ft 20 kts 270°
2026-05-06 19:23 51.47583 -0.46917 90 ft 22 kts 270°
2026-05-06 19:24 51.47582 -0.47140 88 ft 18 kts 270°
2026-05-06 19:24 51.47582 -0.47356 86 ft 21 kts 270°
2026-05-06 19:24 51.47580 -0.47603 90 ft 23 kts 270°
2026-05-06 19:24 51.47580 -0.47872 89 ft 25 kts 269°
2026-05-06 19:25 51.47579 -0.48115 88 ft 18 kts 270°
2026-05-06 19:25 51.47578 -0.48313 90 ft 18 kts 269°
2026-05-06 19:25 51.47576 -0.48450 88 ft 8 kts 255°
2026-05-06 19:25 51.47526 -0.48476 88 ft 9 kts 180°
2026-05-06 19:26 51.47452 -0.48475 86 ft 12 kts 179°
2026-05-06 19:26 51.47364 -0.48474 86 ft 12 kts 179°
2026-05-06 19:26 51.47301 -0.48473 86 ft 10 kts 179°
2026-05-06 19:26 51.47269 -0.48513 88 ft 8 kts 271°
2026-05-06 19:27 51.47271 -0.48581 87 ft 0 kts 267°
2026-05-06 19:27 51.47271 -0.48589 89 ft 0 kts 268°